Voltar ao catálogo

NOAA 18

AtivoMeteoSSO
NORAD 28654·PAYLOAD·🇺🇸 United States

Lançado May 20, 2005 de Vandenberg Space Force Base

Loading…

Próximas Passagens (próximas 24 horas)

TLE

AtualizadoSource: Space-Track

Época: Sep 14, 2026, 13:55 UTC

1 28654U 05018A   26257.58042519  .00000045  00000-0  46931-4 0  9991
2 28654  98.8058 335.9367 0013204 255.6268 104.3439 14.13743109 98942

Acompanhe NOAA 18 em tempo real com AllMySat

Download on the App Store